Location: Oulou
(10.7667°N, 12.5167°W)
Time: 04:38:32
(UTC+00:00)

Cosmos 2184 Rocket - Pass Details

Date: 20 September 2019
Orbit: 960 x 1001 km, 82.9° (Epoch: 21 October)

Event Time Altitude Azimuth Distance (km) Brightness Sun altitude
Rises 20:02:15 0° 351° (N) 3,672 7.2 -19.1°
Reaches altitude 10° 20:04:45 10° 348° (NNW) 2,731 6.5 -19.8°
Maximum altitude 20:10:57 66° 268° (W) 1,075 4.4 -21.3°
Drops below altitude 10° 20:17:13 10° 186° (S) 2,757 6.4 -22.8°
Sets 20:19:46 0° 184° (S) 3,710 7.0 -23.4°
